Flag for U.S.A. Weather past 2 weeks in Tampa, Florida, U.S.A.

Now
79 °F

Sunny.


Feels Like: 82 °F
Forecast: 77 / 84 °F
Wind: No wind

Location: Tampa, Peter O Knight Airport

Current Time: Jul 30, 2015 at 10:02:51 PM

Latest Report: Jul 30, 2015 at 9:15 PM


Visibility: 10 mi

Pressure: 29.98 "Hg

Humidity: 84%

Dew point: 73 °F

Location of TampaLocation

Historic Weather in Tampa — Graph

°F

Tampa temperature yesterday

Maximum temperature yesterday: 90 °F (at 11:55 AM)
Minimum temperature yesterday: 79 °F (at 1:55 PM)
Average temperature yesterday: 82 °F

Past Weeks' High & Low Weather Summary

 TemperatureHumidityPressure
High91 °F (Jul 21, 1:55 PM)100% (Jul 25, 10:35 AM)30.09 "Hg (Jul 25, 10:35 AM)
Low77 °F (Jul 24, 12:15 PM)56% (Jul 22, 5:35 PM)29.86 "Hg (Jul 26, 3:55 AM)
Average83 °F85%29.98 "Hg
* Reported Jul 15 8:15 PM — Jul 30 8:55 PM, Tampa, Weather by CustomWeather, © 2015

Note: Actual official high and low records may vary slightly from our data, if they occured in-between our weather recording intervals... More about our weather records

Advertising

Tampa weather history for previous 24 hours

 ConditionsComfort  
Time TempWeatherWind HumidityBarometerVisibility
8:55 PM
Thu, Jul 30
79 °FScattered clouds.3 mph84%29.98 "Hg10 mi
8:35 PM79 °FScattered clouds.No wind89%29.99 "Hg10 mi
8:15 PM79 °FScattered clouds.6 mph89%30.00 "Hg10 mi
7:55 PM79 °FDrizzle. Broken clouds.6 mph94%29.99 "Hg10 mi
7:35 PM81 °FLight rain. Broken clouds.5 mph89%29.98 "Hg10 mi
7:15 PM79 °FScattered clouds.No wind94%29.97 "Hg10 mi
6:55 PM79 °FLight rain. Cloudy.5 mph94%29.96 "Hg7 mi
6:35 PM79 °FHeavy rain. Cloudy.12 mph94%29.96 "Hg2 mi
5:35 PM82 °FLight rain. Cloudy.No wind89%29.95 "Hg10 mi
5:15 PM82 °FLight rain. Cloudy.3 mph84%29.95 "Hg3 mi
4:55 PM82 °FRain. Cloudy.7 mph89%29.95 "Hg3 mi
4:35 PM86 °FLight rain. Cloudy.6 mph79%29.96 "Hg10 mi
4:15 PM84 °FLight rain. Cloudy.8 mph89%29.97 "Hg10 mi
3:55 PM82 °FLight rain. Cloudy.12 mph79%29.96 "Hg4 mi
3:35 PM86 °FLight rain. Cloudy.8 mph79%29.97 "Hg7 mi
3:15 PM84 °FRain. Cloudy.3 mph84%29.98 "Hg5 mi
2:55 PM84 °FRain. Mostly cloudy.6 mph84%29.98 "Hg7 mi
2:35 PM88 °FCloudy.8 mph75%29.98 "Hg10 mi
2:15 PM90 °FBroken clouds.15 mph75%29.98 "Hg10 mi
1:55 PM90 °FScattered clouds.10 mph71%29.99 "Hg10 mi
1:35 PM88 °FScattered clouds.7 mph75%29.99 "Hg10 mi
1:15 PM88 °FSunny.6 mph66%30.01 "Hg10 mi
12:55 PM88 °FSunny.3 mph66%30.01 "Hg10 mi
12:15 PM90 °FSunny.10 mph63%30.02 "Hg10 mi
11:55 AM90 °FScattered clouds.13 mph71%30.02 "Hg10 mi
11:35 AM88 °FSunny.9 mph75%30.02 "Hg10 mi
11:15 AM88 °FSunny.13 mph79%30.02 "Hg10 mi
10:55 AM88 °FSunny.10 mph79%30.02 "Hg10 mi
10:35 AM86 °FSunny.10 mph79%30.02 "Hg10 mi
10:15 AM86 °FSunny.8 mph79%30.02 "Hg10 mi
9:55 AM86 °FSunny.7 mph79%30.01 "Hg10 mi
9:35 AM86 °FSunny.3 mph79%30.01 "Hg10 mi
9:15 AM84 °FSunny.7 mph84%30.01 "Hg10 mi
8:55 AM82 °FPartly sunny.7 mph89%30.01 "Hg10 mi
8:35 AM82 °FScattered clouds.9 mph89%30.01 "Hg10 mi
8:15 AM82 °FSunny.9 mph89%30.00 "Hg10 mi
7:55 AM81 °FSunny.5 mph94%29.99 "Hg10 mi
7:35 AM81 °FPassing clouds.3 mph94%29.99 "Hg10 mi
7:15 AM79 °FPassing clouds.No wind100%29.98 "Hg10 mi
6:55 AM79 °FClear.No wind94%29.98 "Hg10 mi
6:35 AM79 °FClear.No wind100%29.97 "Hg10 mi
6:15 AM79 °FPassing clouds.No wind94%29.97 "Hg7 mi
5:55 AM79 °FPassing clouds.No wind100%29.97 "Hg10 mi
5:35 AM79 °FClear.No wind94%29.97 "Hg7 mi
5:15 AM79 °FClear.No wind94%29.97 "Hg7 mi
4:55 AM79 °FClear.No wind94%29.96 "Hg10 mi
4:35 AM79 °FClear.No wind94%29.97 "Hg10 mi
4:15 AM79 °FClear.No wind94%29.97 "Hg10 mi
3:55 AM79 °FClear.No wind94%29.97 "Hg10 mi
3:35 AM79 °FClear.No wind94%29.97 "Hg10 mi
3:15 AM79 °FClear.No wind94%29.97 "Hg10 mi
2:55 AM79 °FClear.No wind94%29.97 "Hg10 mi
2:35 AM79 °FClear.No wind94%29.98 "Hg10 mi
2:15 AM79 °FClear.No wind94%29.98 "Hg10 mi
1:55 AM81 °FClear.No wind89%29.98 "Hg10 mi
1:35 AM81 °FClear.No wind89%29.99 "Hg10 mi
1:15 AM81 °FClear.No wind89%29.99 "Hg10 mi
12:55 AM81 °FClear.No wind89%30.00 "Hg10 mi
12:15 AM81 °FClear.3 mph94%30.00 "Hg10 mi
11:55 PM
Wed, Jul 29
81 °FClear.3 mph94%29.99 "Hg10 mi
11:15 PM81 °FClear.No wind89%29.99 "Hg10 mi
10:55 PM81 °FClear.No wind89%29.99 "Hg10 mi
10:35 PM81 °FClear.3 mph89%29.98 "Hg10 mi
10:15 PM81 °FClear.No wind89%29.98 "Hg10 mi
Weather by CustomWeather, © 2015

See weather overviewHow to use our weather pages